Weather observations for the past three days for
Norman / Max Westheimer
Imperial (Metric)
Date Time (cdt) Wind (mph) Vis. (mi.) Weather Sky Cond. Temperature (ºF) Relative Humidity Wind Chill (°F) Heat Index (°F) Pressure Precipitation (in)
Air Dwpt 6 hour altimeter (in) sea level (mb) 1 hr 3 hr 6 hr
Max. Min.
23 18:45 SE 10 10.00 Partly Cloudy SCT075 98.6 66.2 35% 103 29.85 0.0
23 17:45 SE 8 10.00 Fair CLR 100.4 66.2 33% 105 29.86 0.0
23 16:45 SW 7 10.00 Fair CLR 98.6 66.2 35% 103 29.87 0.0
23 15:45 SE 7 10.00 Fair CLR 98.6 68 37% 104 29.89 0.0
23 14:45 E 3 10.00 Fair CLR 96.8 69.8 42% 103 29.91 0.0
23 13:45 SW 6 10.00 Fair CLR 95 68 41% 100 29.92 0.0
23 12:45 W 6 10.00 Fair CLR 93.2 68 44% 98 29.94 0.0
23 11:45 SW 5 10.00 Fair CLR 91.4 69.8 49% 97 29.95 0.0
23 10:44 SW 9 10.00 Fair CLR 87.8 68 52% 91 29.95 0.0
23 09:45 SW 10 10.00 Fair CLR 86 68 55% 89 29.95 0.0
23 08:47 SW 12 10.00 Fair CLR 82.4 68 62% 85 29.95 0.0
23 07:45 S 8 10.00 Fair CLR 78.8 66.2 65% 81 29.95 0.0
23 07:35 SW 8 10.00 Fair CLR 78.8 67.5 68% 81 29.95 0.0
23 07:15 S 8 10.00 Fair CLR 77.9 67.1 70% 80 29.94 0.0
23 06:55 S 9 10.00 Fair CLR 77.2 66.9 82.6 76.3 71% 79 29.94 0.0
23 06:35 S 8 10.00 Fair CLR 76.6 66.6 71% 78 29.93 0.0
23 05:55 S 7 10.00 Fair CLR 76.6 66.2 70% 78 29.93 0.0
23 05:35 S 7 10.00 Fair CLR 77 66.2 69% 79 29.93 0.0
23 05:15 S 8 10.00 Fair CLR 77.4 66.2 69% 79 29.93 0.0
23 04:55 S 8 10.00 Fair CLR 77.4 66 68% 79 29.93 0.0
23 04:35 S 8 10.00 Fair CLR 77.9 66 67% 80 29.92 0.0
23 04:15 S 8 10.00 Fair CLR 78.4 65.8 65% 80 29.93 0.0
23 03:55 S 9 10.00 Fair CLR 79 65.8 64% 81 29.92 0.0
23 03:35 S 10 10.00 Fair CLR 79.7 65.7 62% 82 29.92 0.0
23 03:15 S 9 10.00 Fair CLR 79.3 65.8 63% 81 29.92 0.0
23 02:55 S 14 10.00 Fair CLR 80.1 66 62% 82 29.92 0.0
23 02:35 S 10 10.00 Fair CLR 79.9 66.6 64% 82 29.93 0.0
23 02:15 S 12 10.00 Fair CLR 80.8 66.7 62% 83 29.92 0.0
23 01:55 S 13 10.00 Fair CLR 81.3 67.1 62% 84 29.92 0.0
23 01:35 S 13 10.00 Fair CLR 81.5 67.6 63% 84 29.93 0.0
23 01:15 S 13 10.00 Fair CLR 82.2 68 62% 85 29.93 0.0
23 00:55 S 14 10.00 Fair CLR 82.6 68.4 94.1 82.4 62% 86 29.93 0.0
23 00:35 S 15 10.00 Fair CLR 82.9 68.9 63% 86 29.93 0.0
23 00:15 S 14 10.00 Fair CLR 83.3 69.3 63% 87 29.94 0.0
22 23:55 S 14 10.00 Fair CLR 83.5 69.4 63% 87 29.94 0.0
22 23:35 S 14 10.00 Fair CLR 83.8 69.6 62% 88 29.94 0.0
22 23:15 S 13 10.00 Fair CLR 84 69.8 62% 88 29.94 0.0
22 22:55 S 14 10.00 Fair CLR 84.6 69.8 61% 89 29.93 0.0
22 22:35 S 13 10.00 Fair CLR 84.9 69.8 61% 89 29.93 0.0
22 22:15 S 13 10.00 Fair CLR 85.5 69.6 59% 90 29.92 0.0
22 21:55 S 14 10.00 Fair CLR 85.8 69.4 58% 90 29.91 0.0
22 20:45 S 13 10.00 Fair CLR 87.8 69.8 55% 93 29.9 0.0
22 18:45 S 18 10.00 Fair CLR 93.2 68 44% 98 29.91 0.0
22 17:45 S 16 10.00 Fair CLR 93.2 68 44% 98 29.92 0.0
22 16:45 S 16 G 20 10.00 Partly Cloudy SCT060 95 68 41% 100 29.94 0.0
22 15:45 S 21 10.00 Partly Cloudy and Breezy SCT060 SCT070 95 69.8 44% 101 29.95 0.0
22 14:45 S 15 G 22 10.00 Fair CLR 93.2 69.8 47% 99 29.96 0.0
22 13:45 S 17 G 22 10.00 Fair CLR 93.2 69.8 47% 99 29.98 0.0
22 12:45 S 15 G 25 10.00 Partly Cloudy SCT043 89.6 69.8 52% 95 30.01 0.0
22 11:47 SW 1979 10.00 Fair and Windy CLR 89.6 71.6 55% 96 30.02 0.0
22 09:45 S 16 G 25 10.00 Fair CLR 84.2 69.8 62% 88 30.04 0.0
22 08:45 S 17 10.00 Fair CLR 80.6 69.8 70% 84 30.05 0.0
22 07:51 S 14 10.00 Fair CLR 77 68 74% 79 30.05 0.0
22 07:35 S 13 10.00 Fair CLR 75.7 67.8 77% 77 30.05 0.0
22 07:15 S 10 10.00 Fair CLR 74.7 67.3 78% 30.05 0.0
22 06:55 S 10 10.00 Fair CLR 73.8 67.3 78.6 72.9 80% 30.05 0.0
22 06:35 S 9 10.00 Fair CLR 73.2 67.3 82% 30.05 0.0
22 06:15 S 9 10.00 Fair CLR 72.9 67.1 82% 30.05 0.0
22 05:55 S 10 10.00 Fair CLR 73.4 67.3 81% 30.05 0.0
22 05:35 S 9 10.00 Fair CLR 73.8 67.1 80% 30.05 0.0
22 05:15 S 9 10.00 Fair CLR 73.9 67.3 80% 30.05 0.0
22 04:55 S 9 10.00 Fair CLR 74.3 67.1 78% 30.05 0.0
22 04:35 S 9 10.00 Fair CLR 74.3 67.1 78% 30.05 0.0
22 04:15 S 8 10.00 Fair CLR 74.5 67.1 78% 30.06 0.0
22 03:55 S 8 10.00 Fair CLR 74.8 67.1 77% 30.05 0.0
22 03:35 S 9 10.00 Fair CLR 75.4 66.9 75% 77 30.06 0.0
22 03:15 S 9 10.00 Fair CLR 75.9 66.7 73% 77 30.05 0.0
22 02:55 S 9 10.00 Fair CLR 76.6 66.7 72% 78 30.05 0.0
22 02:35 S 14 10.00 Fair CLR 77.2 66.6 70% 79 30.05 0.0
22 02:15 S 13 10.00 Fair CLR 77.5 66.4 69% 79 30.05 0.0
22 01:55 S 14 10.00 Fair CLR 77.7 66.2 68% 80 30.05 0.0
22 01:35 S 13 10.00 Fair CLR 77.7 66 67% 80 30.05 0.0
22 01:15 S 12 10.00 Fair CLR 78.1 66.2 67% 80 30.05 0.0
22 00:55 SE 15 10.00 Fair CLR 78.6 66.4 89.8 78.3 66% 81 30.06 0.0
22 00:35 S 12 10.00 Fair CLR 78.6 67.1 68% 81 30.06 0.0
22 00:15 SE 13 10.00 Fair CLR 79.2 67.6 68% 81 30.06 0.0
21 23:55 SE 15 10.00 Fair CLR 79.7 67.8 67% 82 30.06 0.0
21 23:35 SE 15 10.00 Fair CLR 80.6 67.8 65% 83 30.06 0.0
21 23:15 SE 14 10.00 Fair CLR 81.1 68 64% 84 30.06 0.0
21 22:55 SE 13 10.00 Fair CLR 81.5 67.8 63% 84 30.06 0.0
21 22:35 SE 10 10.00 Fair CLR 81.9 67.6 62% 85 30.06 0.0
21 22:15 SE 9 10.00 Fair CLR 82.2 67.8 62% 85 30.05 0.0
21 21:55 SE 9 10.00 Fair CLR 82.6 67.6 61% 85 30.04 0.0
21 21:45 SE 9 10.00 Fair CLR 82.4 68 62% 85 30.04 0.0
21 20:45 SE 15 10.00 Fair CLR 84.2 66.2 55% 87 30.03 0.0
21 19:45 SE 15 10.00 Fair CLR 87.8 66.2 49% 90 30.04 0.0
21 18:45 SE 15 10.00 Fair CLR 89.6 66.2 46% 92 30.05 0.0
21 16:45 SE 14 G 18 10.00 Fair CLR 91.4 64.4 41% 93 30.08 0.0
21 15:45 S 12 G 18 10.00 Mostly Cloudy BKN050 BKN095 91.4 66.2 44% 94 30.1 0.0
21 14:45 SE 8 10.00 Partly Cloudy SCT060 SCT070 SCT090 89.6 68 49% 93 30.12 0.0
21 13:45 S 10 10.00 Partly Cloudy SCT044 SCT055 SCT080 87.8 69.8 55% 93 30.14 0.0
21 12:45 S 13 10.00 Fair CLR 87.8 69.8 55% 93 30.17 0.0
21 11:48 S 13 10.00 Fair CLR 86 71.6 62% 92 30.19 0.0
21 10:45 SE 12 10.00 Fair CLR 82.4 71.6 70% 87 30.2 0.0
21 09:45 SE 12 10.00 Fair CLR 80.6 69.8 70% 84 30.2 0.0
21 08:45 SE 12 10.00 Fair CLR 78.8 69.8 74% 81 30.19 0.0
21 07:55 SE 12 10.00 Partly Cloudy SCT042 78.8 69.8 74% 81 30.19 0.0
21 07:35 SE 12 G 17 10.00 Partly Cloudy SCT042 77.5 69.8 77% 79 30.19 0.0
21 07:15 SE 9 10.00 Fair CLR 76.5 70 80% 78 30.18 0.0
21 06:55 SE 10 10.00 Fair CLR 75.7 70 78.3 74.8 82% 76 30.18 0.0
21 06:35 SE 10 G 17 10.00 Fair CLR 75.4 70 83% 76 30.17 0.0
21 06:15 SE 9 10.00 Fair CLR 75 70 84% 75 30.17 0.0
21 05:55 SE 10 10.00 Fair CLR 74.8 70 85% 30.17 0.0
21 05:35 SE 9 10.00 Fair CLR 75.2 70 84% 75 30.17 0.0
21 05:15 SE 8 10.00 Fair CLR 75.4 70.2 84% 76 30.17 0.0
21 04:55 SE 8 10.00 Fair CLR 75.9 70.2 82% 77 30.17 0.0
21 04:35 SE 9 10.00 Fair CLR 76.1 70.5 83% 77 30.17 0.0
21 04:15 SE 12 10.00 Fair CLR 76.3 70.5 82% 77 30.16 0.0
21 03:55 SE 13 10.00 Fair CLR 76.8 70.5 81% 78 30.16 0.0
21 03:35 SE 12 10.00 Fair CLR 77 70.5 80% 79 30.16 0.0
21 03:15 SE 10 10.00 Fair CLR 77.4 70.5 80% 79 30.16 0.0
21 02:55 SE 10 10.00 Fair CLR 77.7 70.7 79% 80 30.16 0.0
21 02:35 SE 9 10.00 Fair CLR 77.9 70.7 79% 80 30.17 0.0
21 02:15 SE 9 10.00 Fair CLR 78.1 70.9 79% 80 30.17 0.0
21 01:55 SE 7 10.00 Fair CLR 77.9 70.9 79% 80 30.17 0.0
21 01:35 SE 7 10.00 Fair CLR 77.7 70.7 79% 80 30.17 0.0
21 01:15 SE 7 10.00 Fair CLR 78.1 70.5 78% 80 30.17 0.0
21 00:55 SE 8 10.00 Fair CLR 78.1 70.5 85.3 78.1 78% 80 30.17 0.0
21 00:35 SE 7 10.00 Fair CLR 78.4 70.3 76% 81 30.17 0.0
21 00:15 SE 9 10.00 Fair CLR 78.8 70.3 75% 81 30.17 0.0
20 23:55 SE 8 10.00 Fair CLR 79.2 70.3 74% 82 30.16 0.0
20 23:35 SE 9 10.00 Fair CLR 79.7 70.5 74% 83 30.16 0.0
20 23:15 SE 9 10.00 Fair CLR 80.2 70.3 72% 84 30.16 0.0
20 22:55 SE 10 10.00 Fair CLR 80.4 70.2 71% 84 30.16 0.0
20 22:35 SE 9 10.00 Fair CLR 81 70.3 70% 85 30.15 0.0
20 22:15 SE 8 10.00 Fair CLR 81.3 70.5 70% 85 30.15 0.0
20 21:55 SE 9 10.00 Fair CLR 81.3 70.7 70% 85 30.14 0.0
20 20:45 E 8 10.00 Fair CLR 82.4 71.6 70% 87 30.13 0.0
Date Time (cdt) Wind (mph) Vis. (mi.) Weather Sky Cond. Air Dwpt Max. Min. Relative Humidity Wind Chill (°F) Heat Index (°F) altimeter (in) sea level (mb) 1 hr 3 hr 6 hr
6 hour
Temperature (ºF) Pressure Precipitation (in)